RH
31 29 30 27 24 25 28 27 25 24 23 22 21 19 21 23 23 24 24 23 20 25 35 34 28 21 18 25 18 8 11 10 8 10 13 24 30 30 32 33 36 37 37 37 36 37 37 38 40 41 43 43 43 45 46 48 48 49 53 57 57 53 49 43 35 33 30 26 23 21 19 19 18 18 18 16 19 19 18 31 36 25 26 31 37 44
31 30 30 27 24 23 26 28 27 26 24 23 23 20 19 21 22 24 24 26 27 25 32 37 37 31 19 14 11 9 12 13 16 18 20 29 33 33 36 36 39 41 41 40 38 38 38 37 38 38 39 40 42 44 46 47 47 46 46 44 39 35 34 31 28 27 25 23 21 20 19 17 17 16 17 17 18 20 18 22 26 23 26 31 34 39
30 30 30 26 23 21 23 29 30 28 25 23 24 22 20 19 20 23 22 28 37 32 27 32 42 43 28 20 18 11 12 19 23 25 26 32 35 36 39 39 40 42 42 42 41 39 38 37 38 37 37 36 36 36 37 37 37 35 32 29 26 23 22 22 22 22 22 22 20 19 17 15 17 17 17 17 16 18 19 19 23 24 25 29 33 37
28 30 29 24 22 21 21 27 30 29 26 24 24 24 22 19 19 21 20 27 36 31 27 30 39 48 36 24 25 22 19 21 26 29 30 32 37 39 40 41 41 42 44 43 43 42 41 40 38 39 39 37 34 32 30 30 28 25 21 19 17 16 17 18 19 20 19 19 19 19 17 15 17 18 15 16 16 17 18 18 20 22 23 27 31 34
27 28 27 23 21 20 19 22 27 30 29 26 25 23 23 21 19 20 19 22 27 25 27 27 29 40 41 33 36 37 27 23 27 30 31 33 36 39 40 41 42 42 44 44 45 46 45 45 42 40 40 38 36 32 27 25 22 20 17 16 15 15 16 17 17 19 18 18 19 18 18 18 17 18 17 17 18 18 18 19 19 20 22 26 30 32
27 26 27 25 21 20 19 20 24 30 31 27 25 24 23 22 20 21 20 19 22 23 25 25 22 28 35 37 49 55 40 28 28 28 32 34 34 37 38 39 41 42 44 46 46 48 50 51 48 44 42 39 36 32 28 25 21 20 18 16 16 16 16 18 18 19 19 18 19 19 19 20 20 20 20 19 19 20 20 20 20 22 24 27 30 31
29 27 27 27 23 21 20 20 21 26 30 29 26 24 22 22 21 22 22 18 18 20 21 24 23 23 26 29 42 55 47 33 31 31 31 33 34 35 36 36 38 40 43 46 47 50 53 54 52 48 45 40 35 30 26 24 22 19 18 17 17 17 17 18 19 19 20 20 20 21 21 21 22 21 21 21 22 22 23 24 27 27 27 27 27 27
31 32 32 30 27 24 22 22 21 22 27 29 27 24 22 23 22 21 22 20 17 17 18 19 21 21 23 24 26 39 44 35 33 35 33 34 35 34 35 36 37 39 41 44 46 49 54 56 54 50 47 42 34 28 24 22 21 19 19 18 17 18 18 19 20 21 21 21 21 22 22 22 22 21 22 22 23 26 28 30 31 30 29 27 25 26
32 34 35 33 31 27 24 25 23 20 23 26 26 24 21 21 22 21 21 21 19 18 17 15 16 18 20 22 22 29 39 33 26 28 30 32 34 35 37 37 37 39 40 43 44 47 56 58 52 48 47 42 34 27 24 21 20 20 19 19 18 19 19 19 20 21 21 22 22 21 21 21 21 21 23 25 28 32 35 34 34 31 28 26 26 26
32 33 33 33 34 32 28 26 24 22 21 22 25 24 20 19 21 22 21 21 20 19 20 17 16 16 15 18 19 22 30 27 21 23 25 25 27 29 32 34 37 39 40 43 46 51 58 56 49 48 44 37 31 26 23 21 21 20 19 19 19 19 19 19 19 21 21 21 21 21 21 21 22 23 25 30 34 36 36 35 33 31 29 29 30 30
34 33 32 32 33 34 32 28 25 24 22 21 23 22 19 17 18 21 22 21 21 20 21 20 18 18 16 16 17 17 19 20 20 23 24 24 25 24 25 28 31 35 39 43 46 51 53 49 45 43 37 31 28 24 23 22 20 20 20 20 19 19 19 19 19 20 20 20 20 20 21 22 24 26 30 33 35 35 34 33 32 31 31 30 31 32
37 35 33 32 33 34 34 30 27 25 24 22 21 20 18 16 15 18 20 21 21 21 21 22 20 19 18 17 16 15 15 16 18 19 18 21 25 24 23 26 28 31 35 37 40 42 41 40 39 35 31 27 25 23 22 21 21 21 20 19 20 20 19 19 20 20 20 20 20 20 22 26 28 30 32 32 34 34 32 32 32 31 31 31 33 33
41 38 36 33 32 33 33 33 29 25 25 23 21 21 19 17 16 15 18 21 23 23 23 23 21 20 19 18 18 17 16 16 16 16 14 16 20 20 19 23 28 29 31 32 32 33 32 31 30 28 26 24 23 22 21 21 21 20 20 20 20 19 19 20 19 19 19 19 20 22 25 29 32 31 31 32 34 33 33 33 32 33 30 27 24 24
45 42 38 34 33 33 33 33 30 26 27 27 26 24 23 21 20 18 20 23 25 25 26 24 22 21 20 19 19 19 18 17 17 17 16 15 16 17 17 19 24 25 26 28 27 27 26 25 25 24 22 22 21 21 20 20 20 20 20 20 19 20 20 19 19 19 21 22 23 26 28 30 31 32 33 34 35 35 35 34 31 27 19 19 34 51
44 47 43 37 35 34 32 33 32 29 30 33 33 30 27 24 23 22 23 24 26 27 28 25 23 23 22 21 21 20 19 19 19 19 18 18 17 17 17 17 20 21 22 23 24 24 23 22 22 21 20 21 21 21 21 20 20 20 20 20 20 20 19 19 21 22 24 26 28 28 29 29 30 32 34 36 37 38 37 34 28 23 21 32 60 79
38 46 47 42 38 36 34 33 33 32 31 33 34 30 27 26 24 24 23 23 25 25 27 27 24 23 23 22 22 22 21 21 20 20 19 19 18 18 19 18 19 20 20 20 21 21 21 21 21 20 21 21 21 21 20 20 21 20 20 20 20 19 20 22 23 26 28 28 29 29 29 30 32 34 35 36 38 38 38 35 29 32 36 34 39 51
30 39 45 46 43 39 36 34 33 32 31 32 32 30 30 30 27 25 22 22 24 23 25 28 25 23 23 22 23 24 24 24 23 22 20 19 19 20 20 20 20 20 20 20 21 21 21 21 21 21 21 21 21 21 21 21 21 20 20 21 21 22 24 25 27 29 29 28 29 31 31 33 35 36 36 37 39 39 37 31 25 31 31 21 30 63
22 30 39 45 47 42 37 35 34 33 32 31 32 32 32 32 29 26 23 22 23 23 25 28 26 23 22 21 23 25 25 25 24 24 23 22 21 20 20 20 21 21 21 21 21 22 22 22 22 21 21 21 21 20 21 21 21 23 24 25 26 27 27 29 30 29 30 31 33 33 34 36 38 38 38 38 38 34 29 26 21 21 25 34 65 97
16 22 30 39 46 45 40 36 34 34 33 32 31 30 31 30 27 26 25 24 24 24 25 27 27 25 24 22 23 25 24 25 25 24 25 24 24 23 22 21 21 20 21 21 21 21 22 21 21 20 21 21 21 22 23 25 26 28 30 30 30 30 29 30 30 31 34 34 34 37 39 39 38 38 38 36 35 26 21 31 36 44 63 75 83 89
12 16 22 30 39 43 44 41 38 36 34 33 31 29 29 28 26 26 27 26 26 25 25 27 27 28 28 25 22 23 23 23 25 25 24 25 26 27 26 24 24 24 23 23 23 23 23 23 23 23 23 24 25 28 29 30 32 32 32 32 31 31 31 32 32 35 36 36 39 42 41 41 40 39 36 32 27 13 7 21 38 61 83 75 63 78
11 13 16 23 31 37 42 44 41 39 37 34 30 30 30 28 27 27 26 27 26 25 25 25 26 29 29 27 23 22 22 22 23 24 25 25 25 28 27 26 26 27 26 27 27 28 28 28 28 27 27 28 29 31 31 32 32 31 32 32 31 32 32 33 35 37 39 41 43 43 44 44 40 36 32 24 15 4 -0 15 33 45 47 40 54 90
12 12 12 16 24 30 37 42 40 38 39 37 32 32 31 30 31 28 25 28 28 26 27 26 27 29 29 28 26 25 24 23 22 24 25 26 25 26 25 25 26 26 26 27 28 28 29 29 30 29 28 28 28 29 29 30 30 30 32 31 32 33 33 35 37 38 42 44 44 48 48 41 35 32 26 12 4 -0 -3 7 16 11 8 25 63 99
13 12 11 12 17 24 29 36 38 36 38 40 37 35 32 31 33 29 27 31 30 29 31 30 30 30 30 30 29 28 27 25 25 25 25 25 25 24 25 29 30 26 24 26 27 27 27 27 28 28 28 27 27 27 28 29 30 31 32 33 33 35 35 37 39 41 44 45 47 49 45 41 37 25 12 2 -1 5 11 23 35 36 42 58 76 100
14 13 12 11 13 18 23 29 35 37 39 41 41 37 33 32 33 29 29 32 31 30 32 32 31 31 31 32 31 30 29 27 26 25 24 23 23 23 26 31 30 26 25 26 27 28 26 27 27 27 27 27 26 27 27 29 31 31 33 34 34 36 38 40 42 43 46 47 49 47 45 49 40 18 12 11 9 17 25 44 79 97 97 90 79 90
16 14 14 12 10 14 18 23 29 34 39 41 42 41 36 34 34 32 31 32 29 29 31 31 31 32 32 32 31 30 29 27 26 25 24 25 24 25 27 27 24 23 26 27 28 28 27 28 28 27 27 27 27 27 28 29 31 32 34 35 36 39 40 42 45 46 48 49 48 47 46 45 33 20 25 28 34 44 26 23 77 107 86 78 85 89
20 16 14 13 11 11 14 19 23 29 34 37 39 41 40 37 36 35 34 32 29 29 31 30 30 32 33 32 31 30 28 27 26 26 27 26 25 26 26 25 24 25 26 27 27 28 28 28 28 28 28 28 28 29 29 31 33 34 36 37 38 41 42 45 48 48 50 50 47 46 42 35 25 16 25 36 46 48 17 12 73 96 60 70 110 106
24 18 14 14 13 11 11 14 19 23 28 32 35 38 40 39 38 37 36 33 30 31 32 30 30 33 34 33 33 32 30 29 28 27 28 27 27 29 28 26 26 27 27 27 27 28 28 29 28 28 29 30 30 31 32 34 36 37 38 39 41 43 45 47 50 51 52 49 46 44 36 30 23 12 16 25 20 15 18 41 81 80 52 64 86 79
28 21 17 16 14 12 11 12 15 19 23 27 31 34 37 38 38 37 36 34 33 33 32 31 31 33 34 36 36 34 32 31 30 29 29 28 29 31 32 30 29 28 28 28 29 29 29 29 29 29 30 31 32 34 35 37 38 39 41 43 45 47 48 50 52 53 50 46 43 40 31 26 24 17 12 7 8 29 57 73 75 59 48 53 50 53
32 26 21 18 15 13 12 11 12 16 19 23 26 30 33 36 37 37 36 35 34 33 31 31 32 32 34 38 39 36 34 33 32 32 31 30 29 30 31 32 31 29 29 30 31 31 30 29 30 30 31 33 35 36 38 39 41 43 45 47 48 50 51 52 52 49 45 42 39 33 27 23 21 21 17 5 12 40 49 41 36 26 25 35 37 61
35 33 26 20 17 15 13 12 11 12 16 19 22 25 29 32 35 35 35 36 35 33 31 31 32 32 34 41 44 39 36 35 35 34 33 32 32 31 31 32 31 31 31 32 32 32 31 31 32 32 33 35 37 38 40 41 44 47 48 49 50 50 49 48 45 41 37 35 33 26 23 25 21 19 19 9 8 19 14 5 7 2 3 15 20 42
39 39 33 24 19 16 14 13 12 10 13 16 19 22 23 27 31 32 33 35 34 33 32 31 31 30 32 41 48 45 41 39 38 37 36 35 33 33 33 32 33 33 33 33 33 32 33 33 33 33 35 37 39 40 42 43 46 49 50 51 50 47 44 40 35 32 30 27 27 25 21 23 23 18 17 13 10 15 12 6 5 2 3 10 12 22
41 41 37 29 24 19 16 15 13 11 12 13 15 19 20 22 25 27 30 32 32 32 32 31 30 29 30 38 47 50 47 44 41 39 40 38 35 34 35 35 36 36 36 35 34 34 35 36 35 36 38 40 41 42 43 44 45 48 49 48 46 42 38 35 30 27 27 25 24 25 23 21 21 18 16 14 12 13 13 10 9 9 9 10 13 18
41 41 41 36 30 23 19 17 16 13 12 11 12 15 17 19 21 23 25 28 30 31 32 31 30 29 30 36 45 50 48 45 43 41 40 38 35 34 36 37 38 38 38 38 37 37 39 39 38 39 40 42 43 44 44 45 46 46 44 41 39 36 32 30 28 25 26 26 24 24 23 21 19 18 16 15 14 13 13 13 12 12 13 13 12 13
46 46 45 41 37 33 26 20 17 16 12 11 11 12 14 17 19 21 22 24 26 29 30 30 30 30 29 31 39 45 45 43 42 41 40 39 39 39 39 40 41 42 42 42 41 41 42 42 42 42 43 43 43 44 44 45 45 43 41 38 36 34 30 27 28 27 25 25 24 22 22 20 19 17 15 14 14 12 13 14 14 13 12 11 11 11
50 51 50 44 42 43 38 26 19 17 14 12 11 11 12 14 17 19 20 21 22 25 26 28 29 29 28 27 32 40 46 46 44 44 43 43 43 43 42 43 45 46 46 46 45 44 45 46 45 43 43 42 42 43 42 43 44 41 38 37 35 33 31 28 28 28 26 24 23 21 20 19 18 16 15 15 14 13 14 14 13 12 11 12 13 15
49 51 55 53 47 46 45 37 27 18 15 15 13 11 11 12 14 16 18 19 20 21 23 25 26 27 28 27 28 33 39 42 41 40 40 40 41 42 42 44 47 47 48 47 45 45 47 47 43 40 41 40 39 40 40 41 44 41 36 34 34 31 30 29 28 28 27 24 22 21 19 18 16 15 15 14 14 14 15 15 14 13 14 16 18 19
53 48 55 59 52 46 45 41 31 20 16 17 15 12 11 11 12 14 16 17 19 20 21 22 23 24 26 26 26 27 30 33 34 34 35 36 37 39 41 45 47 47 48 46 43 45 47 44 39 39 42 42 39 38 38 39 42 43 39 35 34 32 30 28 27 27 27 24 22 20 18 17 16 15 14 14 14 14 16 16 16 17 19 20 22 22
59 46 48 58 55 48 44 36 27 21 19 17 15 14 13 11 10 12 14 16 18 19 20 21 22 22 23 25 25 25 26 28 29 29 31 33 35 37 41 44 45 45 45 44 42 43 45 43 40 40 42 44 41 37 36 37 38 39 38 34 32 31 30 27 25 25 24 22 20 19 18 16 15 15 14 14 15 16 17 18 18 20 22 23 24 25
67 46 46 58 56 46 41 32 24 23 21 18 18 18 15 13 11 11 12 14 17 19 20 20 21 21 22 23 24 24 24 25 25 25 27 30 32 35 38 40 42 43 43 42 41 42 44 44 41 39 40 42 41 38 36 35 33 32 32 31 29 28 26 24 23 22 22 21 19 18 17 16 15 15 15 15 17 19 19 19 21 22 23 25 26 25
77 50 45 60 60 46 38 32 27 26 23 20 23 22 17 14 13 11 11 12 14 18 21 21 21 21 22 22 23 24 24 23 23 23 24 26 27 30 31 33 36 39 39 39 39 39 40 42 40 38 38 39 39 38 35 32 29 28 27 26 25 24 23 23 22 20 20 19 18 17 16 15 15 15 15 17 19 20 19 19 22 24 25 26 25 25
85 58 48 61 64 49 37 31 28 27 24 21 23 24 21 17 14 12 11 11 13 17 20 21 22 21 21 22 23 24 24 23 23 23 23 24 24 24 25 26 28 30 32 32 34 34 34 35 36 35 35 34 33 32 31 29 26 24 23 23 22 21 21 21 19 18 17 14 12 13 14 15 16 15 17 19 19 19 20 21 24 26 27 27 26 25
90 65 53 62 66 52 38 33 30 29 27 25 24 23 21 18 15 14 12 11 13 17 18 20 22 22 21 22 22 24 24 22 23 23 22 22 22 22 22 23 23 25 26 27 28 29 29 29 30 30 29 28 27 26 25 24 22 21 20 20 20 19 18 18 16 13 12 10 8 10 13 14 15 17 18 20 21 20 21 23 26 29 27 27 27 25
93 68 57 63 63 51 41 34 31 32 32 31 29 25 20 19 20 21 19 13 12 15 17 19 22 22 23 23 22 23 23 22 23 23 22 22 22 21 21 21 21 22 23 24 24 24 25 24 24 25 24 23 22 22 22 21 20 19 19 19 19 18 16 16 16 13 11 10 8 10 12 13 16 19 21 22 22 22 24 27 30 30 29 29 28 26
90 65 58 63 60 52 45 39 38 42 42 42 41 32 22 21 25 27 24 19 17 17 16 18 21 22 23 24 23 23 23 23 23 23 22 22 21 21 21 21 22 22 21 22 22 22 22 22 22 22 21 20 20 20 19 19 19 18 18 18 18 16 14 14 16 14 11 9 9 11 13 15 18 21 22 24 24 24 27 31 32 31 31 31 29 27
93 67 58 65 63 55 49 44 45 49 47 47 47 37 26 25 25 24 22 22 22 20 16 16 20 22 23 24 24 23 23 23 23 23 23 23 22 21 21 21 21 21 21 21 21 21 21 21 20 20 20 19 19 19 18 19 18 17 17 15 15 20 23 18 14 12 10 9 11 13 15 19 23 24 24 25 26 27 30 33 34 34 35 33 30 30
97 71 61 67 64 56 54 55 62 69 69 63 53 37 28 28 26 21 20 20 20 19 17 18 20 22 25 26 25 24 24 23 23 23 23 24 23 22 22 21 21 21 21 21 21 21 21 21 20 20 20 19 19 19 18 19 17 17 19 17 16 23 26 18 10 10 11 11 14 17 19 22 24 25 25 26 27 29 33 35 35 36 36 35 35 36
88 66 65 73 66 64 75 83 91 99 98 91 77 54 35 29 27 24 21 19 19 19 18 20 21 22 25 26 26 27 26 25 25 25 24 25 24 22 22 22 21 22 21 21 21 21 21 21 20 19 19 19 20 19 18 19 18 17 19 18 14 14 15 12 12 14 15 16 18 20 22 24 25 24 25 27 29 31 33 34 35 36 38 39 40 41
84 68 75 80 72 79 96 100 99 102 100 101 100 80 50 32 28 26 23 21 21 21 19 20 21 21 23 25 26 28 28 27 27 26 26 26 25 23 23 23 22 23 22 22 22 21 21 21 21 20 20 21 21 20 18 17 15 14 14 13 11 10 13 15 17 19 20 21 23 23 24 25 25 25 26 28 29 31 31 32 34 36 40 45 46 51
92 77 81 82 77 90 105 101 98 101 99 101 103 89 67 48 34 29 28 25 22 22 20 19 20 20 22 24 26 28 30 30 30 29 28 26 25 23 23 23 22 23 23 22 23 23 22 22 21 20 21 20 19 19 16 15 18 19 15 13 12 13 16 19 20 21 22 23 24 26 26 26 26 27 28 29 30 31 32 32 34 39 46 52 56 64
91 80 79 77 79 95 106 101 98 102 102 101 98 91 85 71 47 32 31 29 26 24 21 20 21 20 21 23 25 28 31 31 31 31 29 27 25 23 24 24 25 25 25 25 25 24 23 22 21 20 19 18 17 17 15 17 25 26 19 14 16 17 19 21 22 23 24 25 26 27 27 26 27 28 30 33 35 36 37 36 37 42 49 55 60 66
80 78 78 75 81 97 106 102 100 102 102 99 89 84 88 85 68 50 39 29 25 23 19 17 18 19 20 22 24 27 30 31 32 32 31 29 28 26 26 26 27 28 28 28 27 25 23 21 20 19 19 18 18 18 16 17 22 23 18 17 19 20 21 23 25 25 27 28 28 28 27 27 29 30 31 35 38 40 42 45 46 50 57 62 65 66
Wind_Speed
39 37 36 35 29 24 21 20 18 17 14 11 10 8 7 8 8 8 6 5 5 5 5 7 10 13 15 15 15 16 17 17 17 17 18 19 20 20 19 18 16 15 14 13 13 12 11 11 11 11 11 11 10 9 8 7 6 5 4 3 3 3 3 4 6 8 10 12 13 15 16 17 17 18 20 21 22 23 24 23 23 25 25 23 22 22
41 40 41 40 34 29 25 23 22 21 19 15 13 12 10 9 10 10 9 7 6 6 5 5 6 9 12 14 15 16 17 17 17 18 19 19 18 16 14 13 12 12 11 10 10 9 9 8 8 8 8 8 8 7 5 4 4 3 3 3 3 3 4 5 7 9 10 12 14 16 17 18 20 20 22 23 23 24 26 25 26 27 27 26 25 24
42 43 46 44 38 33 28 27 27 25 22 19 17 16 14 12 11 12 12 10 8 8 8 7 7 8 10 12 14 15 17 17 17 18 18 18 16 13 11 9 9 8 8 8 7 7 6 6 5 5 5 5 5 5 5 4 3 3 3 3 3 3 5 6 8 9 11 12 14 16 18 20 21 22 23 25 26 26 27 28 28 29 29 29 28 28
44 46 50 48 42 37 32 30 30 29 26 24 22 20 18 15 14 13 14 12 11 11 10 9 9 10 11 12 13 14 16 17 17 17 18 17 15 13 11 8 7 6 5 4 4 4 4 4 3 3 2 3 3 4 4 3 3 2 1 1 2 4 6 7 9 10 12 14 16 18 19 21 23 24 25 27 27 28 28 29 29 30 30 30 30 30
47 49 53 51 45 41 37 33 32 32 31 29 26 24 22 19 18 15 14 15 14 14 13 12 11 11 13 13 13 14 15 17 18 18 18 17 16 15 13 11 9 7 5 4 2 1 1 1 2 1 0 1 2 1 1 1 1 1 1 2 3 5 7 9 10 12 14 16 17 20 21 23 24 26 27 27 28 28 28 29 29 30 31 31 31 31
49 50 53 53 47 44 41 37 35 36 36 34 30 28 26 24 21 17 17 17 17 17 16 15 13 13 13 14 15 15 15 17 18 19 19 18 18 17 16 14 12 10 9 7 6 5 4 3 3 3 2 2 2 2 2 2 3 3 4 5 6 7 9 10 12 14 16 17 19 21 23 24 25 26 27 28 28 28 28 28 29 29 30 30 30 30
50 50 54 56 50 46 44 41 39 39 38 37 35 33 30 27 24 21 21 20 19 18 17 16 16 15 15 15 16 17 16 17 19 20 20 20 19 19 19 17 16 14 12 11 10 9 8 7 6 5 5 4 4 4 4 4 5 6 7 8 9 10 11 12 14 16 18 19 21 22 23 24 25 26 27 28 28 28 28 28 28 28 29 29 29 30
52 52 55 57 52 48 46 45 44 42 41 41 41 39 34 30 28 26 25 23 21 19 17 17 18 17 17 17 16 17 16 18 21 21 21 21 21 21 20 19 18 17 16 15 14 13 12 10 9 8 7 6 6 5 6 6 7 8 9 11 12 12 13 14 15 18 20 21 22 23 24 25 25 26 27 28 28 28 29 29 28 28 28 28 29 30
56 56 57 59 55 49 47 49 50 46 45 45 45 42 37 34 31 29 28 27 24 19 17 19 19 18 19 18 18 18 18 21 22 22 21 21 21 22 22 21 20 19 19 18 17 16 14 13 11 10 9 9 7 7 7 8 9 10 12 13 14 15 16 17 18 19 21 23 24 25 26 26 26 27 28 28 29 29 29 29 28 28 28 29 30 31
60 60 60 61 58 52 50 52 53 51 49 48 47 46 41 37 34 32 30 29 26 21 19 22 22 21 20 19 19 21 22 23 22 20 20 20 21 21 22 22 22 22 21 20 19 18 16 14 13 12 11 10 9 9 10 11 12 13 15 16 17 18 19 20 21 22 24 25 26 26 26 27 27 28 29 29 30 30 30 30 29 29 30 31 32 34
62 63 63 63 60 56 54 54 54 54 53 50 49 48 43 38 36 34 32 31 29 24 22 25 26 24 22 22 23 24 24 23 21 20 21 20 21 21 21 21 22 22 21 21 20 19 17 16 14 13 13 12 11 12 13 14 15 17 18 19 20 21 22 24 25 26 27 27 27 27 27 28 29 29 30 31 31 31 31 31 31 31 32 34 35 37
66 66 66 65 63 61 58 56 55 56 55 53 51 48 44 39 37 35 34 33 29 25 25 28 29 27 27 27 25 25 24 22 22 23 22 21 21 21 21 20 20 20 20 20 20 19 18 16 15 14 14 13 13 14 16 17 18 20 22 23 24 25 26 27 28 29 29 29 29 29 29 30 31 31 31 32 32 32 32 32 33 34 35 37 38 40
70 70 70 69 67 65 61 58 58 58 57 56 53 48 44 41 38 36 34 33 31 28 30 33 32 30 32 31 26 26 27 24 24 25 24 22 23 23 22 21 20 20 20 19 19 18 18 17 16 16 16 15 16 17 18 20 21 24 25 26 27 28 29 30 30 31 31 31 31 31 31 32 32 32 32 33 33 33 33 33 35 36 38 39 41 41
74 73 74 71 69 68 65 62 61 60 58 59 57 51 46 44 41 38 36 35 34 32 35 39 34 31 37 34 27 28 30 26 26 27 26 24 24 24 23 22 22 22 21 20 19 19 19 18 18 18 18 17 18 19 21 23 24 26 28 29 30 31 31 32 32 32 32 32 32 32 33 33 33 33 33 34 34 34 34 35 36 38 40 40 41 40
78 77 75 73 72 71 69 66 64 63 61 62 61 56 51 48 44 42 41 40 39 38 40 43 35 33 41 38 29 31 31 28 29 30 29 28 27 26 24 24 24 24 23 22 21 21 21 21 21 21 21 20 21 22 24 26 27 28 30 31 32 33 33 33 33 33 33 33 33 33 33 34 34 34 34 34 35 35 35 36 38 39 39 39 39 38
83 81 79 77 77 76 74 71 69 68 65 65 66 62 54 49 47 47 47 44 44 44 43 43 37 37 45 40 32 32 32 31 33 33 33 32 30 27 26 27 27 26 26 24 24 24 24 24 25 24 24 24 25 26 27 28 29 30 32 33 34 34 34 34 34 34 34 33 33 33 34 34 34 34 35 35 36 36 37 37 39 39 38 38 38 38
86 85 83 81 81 80 78 76 74 72 68 67 68 63 56 53 52 51 49 47 47 46 44 45 41 42 47 41 34 35 35 35 37 36 36 34 31 31 30 30 29 29 28 27 27 27 27 28 28 27 27 28 28 29 30 30 31 32 34 34 35 35 35 35 35 35 35 34 34 33 34 34 35 35 36 36 37 38 39 40 40 40 39 39 38 36
90 89 87 84 84 83 81 81 80 77 73 70 69 66 62 60 57 53 52 50 49 46 44 47 45 45 47 42 37 39 39 40 40 39 38 36 34 34 33 32 32 31 30 30 30 29 30 31 31 30 30 31 31 32 32 33 33 34 35 35 35 36 36 36 36 36 36 35 34 34 34 35 35 36 37 38 39 40 42 42 42 41 39 37 35 33
92 92 89 87 88 88 86 87 85 81 76 73 72 70 67 65 60 56 55 53 51 47 45 47 47 48 49 44 40 42 43 43 43 41 40 39 38 37 36 34 34 33 33 32 32 32 32 34 34 33 33 33 33 33 34 34 35 35 36 36 36 37 38 38 38 38 37 37 36 35 35 35 36 38 39 39 40 41 42 42 42 40 37 35 35 35
92 95 93 90 92 93 91 90 88 82 77 76 75 73 71 68 64 61 59 56 54 50 48 49 49 49 52 49 44 45 46 46 45 44 42 41 40 39 39 38 36 36 35 35 35 34 35 36 36 36 35 34 34 34 35 36 36 36 37 37 38 39 39 40 40 39 39 38 37 36 36 36 38 39 40 40 41 41 41 41 41 39 37 40 41 39
90 95 97 94 95 97 93 90 87 83 80 80 77 75 74 71 67 66 62 58 56 53 49 49 49 50 55 54 47 46 48 47 47 46 44 43 42 41 41 40 39 39 38 38 38 37 37 38 38 38 37 36 36 36 36 36 37 37 38 39 40 40 41 41 41 40 40 39 38 38 36 37 39 40 41 41 40 40 39 38 37 37 40 46 44 40
88 93 98 98 98 98 94 90 87 87 86 85 81 78 78 74 72 72 66 59 58 55 50 49 49 52 57 57 51 49 49 48 48 47 46 45 44 43 43 42 42 42 41 41 41 39 38 38 39 39 38 37 37 37 37 38 38 39 40 40 41 42 42 42 42 42 41 40 39 39 38 39 39 38 39 39 40 40 37 34 35 39 45 48 44 42
87 90 96 100 99 98 96 93 92 92 91 90 86 84 83 79 78 76 67 61 60 56 52 52 52 54 56 57 57 54 51 50 49 49 49 48 47 46 45 44 44 44 43 42 42 41 40 39 40 39 39 39 39 39 40 40 40 41 41 42 43 43 44 44 44 43 42 42 41 41 41 40 38 37 38 40 40 41 40 40 42 46 49 50 47 46
85 87 92 98 100 100 99 98 98 97 96 94 91 87 86 82 79 76 68 65 64 59 58 58 55 54 55 58 62 59 56 54 52 52 52 50 49 49 47 46 46 45 44 43 43 43 41 40 41 40 40 40 41 41 41 42 42 43 43 44 44 45 46 45 45 45 44 44 43 43 42 40 38 40 40 39 41 44 47 50 50 49 50 53 54 52
83 85 89 95 99 102 102 101 101 99 97 96 91 88 86 83 80 78 73 72 69 63 63 60 55 55 57 60 64 64 61 58 55 54 54 52 52 52 50 49 49 47 46 46 46 45 43 43 43 42 42 42 42 42 42 43 43 44 45 46 46 47 48 48 47 47 47 46 44 43 43 41 42 43 41 41 45 49 53 54 53 53 54 56 58 56
83 85 87 90 95 99 102 102 101 97 96 95 92 89 87 85 83 80 78 78 72 64 64 61 56 58 59 60 65 68 65 61 59 57 56 55 55 54 53 52 50 49 49 48 48 47 46 46 45 44 43 43 43 43 43 43 44 46 47 48 48 49 49 50 49 49 49 48 46 45 45 45 44 44 45 48 51 53 55 54 52 54 56 55 56 57
83 84 84 87 91 95 100 103 102 99 98 98 96 93 91 89 87 85 83 81 72 67 67 62 59 61 60 59 66 70 68 65 62 61 59 58 58 57 55 53 52 52 51 50 49 49 49 48 47 46 45 44 44 44 44 45 46 47 48 49 50 51 52 52 52 52 52 50 47 46 46 46 44 43 45 50 52 54 54 51 48 51 54 53 55 58
80 82 81 84 88 91 96 102 104 103 102 101 100 98 96 93 91 90 87 81 74 74 72 65 62 63 59 59 67 72 71 68 66 64 62 60 60 59 57 55 54 53 53 52 52 52 51 50 49 47 46 45 45 45 45 46 47 48 50 50 52 53 54 54 54 55 55 52 49 49 47 46 44 43 43 46 51 52 49 47 47 51 53 54 56 59
76 79 81 83 86 89 93 100 104 105 104 103 103 101 99 96 95 93 88 83 81 81 75 68 66 64 59 61 68 73 74 71 69 68 65 62 61 61 60 58 55 54 54 54 55 55 53 52 51 49 47 46 47 47 47 48 48 50 51 52 53 55 56 57 57 58 56 54 52 52 50 47 46 44 43 43 47 52 52 51 52 53 53 53 55 57
70 75 80 82 84 88 91 95 102 106 106 105 105 103 101 99 97 94 90 88 87 85 78 72 71 66 61 64 70 75 76 74 73 70 66 63 63 62 62 60 57 57 57 57 58 57 55 53 52 50 48 48 49 49 49 49 50 51 52 54 55 57 58 59 59 59 57 55 54 54 52 49 47 46 45 42 43 50 53 52 52 52 50 50 52 55
65 71 78 81 82 86 89 92 98 103 107 108 106 105 103 101 99 96 93 91 91 88 83 78 76 70 65 67 73 77 77 76 73 70 67 65 65 64 63 60 59 60 60 60 60 58 56 55 54 52 50 50 51 51 51 51 52 53 55 56 58 59 59 60 60 60 58 57 57 56 54 52 49 46 45 43 43 46 49 49 49 49 48 49 53 56
64 68 75 78 79 83 86 90 94 99 105 110 109 107 105 102 100 97 94 93 91 89 86 82 78 72 68 70 75 78 78 77 74 71 69 68 66 64 63 61 61 62 63 63 61 59 58 58 56 53 52 53 53 53 53 53 54 55 57 58 59 60 61 61 61 60 59 59 59 59 58 56 53 48 45 44 44 45 47 49 49 48 49 53 56 59
63 66 71 73 75 80 84 88 92 96 103 109 110 108 105 102 100 97 95 93 92 90 88 85 78 72 71 74 77 79 79 77 74 72 71 69 66 64 63 62 63 64 65 64 62 60 60 60 58 56 55 55 55 55 55 55 56 58 58 59 60 61 62 62 61 61 61 61 62 63 62 60 57 53 48 45 45 46 47 50 51 51 54 57 60 61
59 62 67 70 72 75 81 86 91 95 100 104 105 105 104 102 100 98 96 94 93 91 89 85 81 78 78 77 76 78 79 76 74 73 72 69 67 65 64 64 65 66 66 65 63 62 63 62 60 58 57 57 57 57 57 57 59 60 60 61 62 63 64 64 63 62 63 63 64 64 64 63 61 57 53 50 48 48 50 52 55 56 58 61 63 64
58 58 62 67 69 70 76 84 90 93 95 96 99 103 105 104 102 101 99 97 95 93 90 87 85 84 82 78 76 77 79 77 76 75 73 70 68 67 66 66 67 67 67 66 65 64 64 64 62 60 59 58 58 58 58 59 61 62 62 63 64 65 66 66 65 65 65 65 66 66 65 65 63 60 57 54 52 51 53 55 58 60 62 64 65 66
60 58 58 63 68 70 72 79 87 89 89 90 93 99 103 105 105 104 102 100 97 94 91 88 87 86 84 81 79 79 80 81 79 77 74 71 70 69 68 67 68 69 68 67 67 66 66 66 63 61 61 61 60 60 60 61 64 65 65 65 66 67 68 67 67 67 67 68 68 68 67 66 65 62 61 58 55 54 56 59 61 63 64 66 68 68
62 60 57 59 65 69 69 73 79 83 85 86 89 94 99 104 106 106 104 101 98 95 92 90 87 86 85 84 82 81 81 82 81 78 75 73 72 71 70 70 71 71 70 70 68 68 69 68 64 62 65 66 63 61 62 63 66 68 68 69 69 69 70 69 68 68 69 69 68 69 69 67 66 64 63 61 58 58 59 61 63 65 66 68 70 70
63 61 58 57 62 66 68 71 74 78 82 85 87 90 95 101 106 107 105 103 100 96 93 90 88 87 85 84 84 83 84 84 83 80 76 74 74 73 72 72 73 73 72 72 70 70 71 70 67 65 68 69 68 66 65 66 67 69 71 71 72 72 72 71 70 70 69 69 68 69 69 67 66 65 64 62 61 61 63 64 65 66 67 68 69 68
63 61 57 56 61 65 67 69 72 75 80 83 84 87 92 97 102 105 105 103 100 96 94 92 90 89 86 85 84 85 86 87 85 81 78 78 77 76 75 75 75 75 75 74 73 73 73 73 71 69 70 72 72 70 69 69 69 70 72 73 73 74 73 73 72 72 70 69 69 68 68 67 66 65 64 63 63 64 66 66 67 68 69 68 68 67
63 61 56 53 58 63 65 66 68 71 76 78 80 83 88 92 98 102 104 102 99 95 94 94 92 90 89 87 86 86 88 88 86 83 82 82 81 79 78 77 77 77 77 76 75 75 75 75 75 73 73 74 75 74 73 72 72 72 73 73 74 74 74 74 74 73 71 70 69 68 67 66 66 65 64 65 66 68 69 69 69 70 69 69 69 68
62 60 55 51 55 60 62 62 64 68 71 74 76 80 84 89 95 98 99 99 96 94 95 96 94 93 92 90 87 87 89 88 86 85 86 85 83 82 81 79 78 78 78 77 77 77 77 77 77 77 76 76 76 76 75 75 74 74 74 73 74 75 75 75 75 74 72 70 69 68 67 66 66 66 66 68 70 71 72 71 72 71 69 69 69 68
62 59 53 49 51 57 58 58 60 63 66 69 73 78 82 85 88 90 94 96 95 94 96 97 96 94 92 91 89 89 90 89 87 88 88 87 86 84 82 79 78 78 79 79 79 79 79 79 79 79 78 77 77 77 77 76 76 75 74 74 75 75 76 76 74 73 71 70 69 68 67 67 67 67 69 71 73 74 75 74 73 71 71 70 69 68
61 58 50 45 48 53 54 54 54 56 60 64 69 74 77 79 79 81 87 93 94 95 96 96 95 94 92 92 92 92 91 89 87 88 88 87 87 85 83 81 80 80 81 81 81 81 80 81 81 81 80 79 78 78 77 76 76 76 76 76 76 77 77 75 73 72 71 71 70 68 68 68 68 69 71 74 75 76 76 75 73 73 72 70 68 68
61 55 46 43 46 49 49 49 49 51 55 60 63 67 70 73 74 76 81 87 90 93 95 95 94 95 94 94 93 92 91 89 88 87 87 87 87 85 83 82 82 82 83 82 82 82 82 82 83 82 81 80 79 78 77 77 76 76 77 77 76 77 78 76 72 71 71 71 70 70 70 70 69 70 73 75 77 77 76 75 74 74 72 70 69 67
61 55 46 43 45 45 44 46 47 49 52 55 57 61 65 68 72 75 78 82 85 89 92 93 93 94 94 94 93 92 91 90 88 87 86 87 87 86 85 84 84 83 83 83 83 83 83 83 84 83 82 81 80 79 78 77 77 76 77 77 76 76 76 75 72 71 71 71 72 72 72 71 71 72 75 77 77 77 75 74 74 74 72 71 70 68
60 55 46 42 42 40 40 42 43 44 48 50 53 58 61 64 68 72 75 78 81 85 87 89 91 92 92 92 91 91 90 89 87 86 86 86 87 86 85 84 84 83 83 83 83 83 84 84 84 83 82 81 80 80 79 78 77 76 77 77 76 75 74 74 73 73 72 72 73 73 73 72 73 74 76 77 76 75 74 74 74 74 73 72 71 70
61 53 44 41 40 38 38 40 40 41 45 47 50 54 57 60 63 66 70 74 78 81 84 86 88 90 90 90 90 89 89 88 87 87 86 87 87 86 84 83 82 82 83 83 83 83 84 84 83 82 81 79 79 79 79 78 76 75 75 75 75 75 75 75 75 74 73 73 73 73 74 75 75 76 76 75 75 74 73 73 73 73 73 72 72 71
60 52 44 43 42 41 42 43 44 46 46 44 44 48 52 55 58 60 64 68 72 76 80 82 85 87 88 89 89 88 87 87 86 87 87 88 87 85 83 82 82 82 82 82 82 82 83 82 81 80 78 77 77 78 78 77 76 75 75 75 75 76 76 76 76 75 74 73 74 75 76 77 77 76 75 75 74 74 73 72 72 72 72 73 73 73
55 50 47 45 44 45 47 48 48 49 49 46 42 42 44 49 54 57 59 62 66 70 74 78 81 83 85 86 87 86 86 85 85 86 88 88 86 84 82 82 82 81 81 81 81 81 80 79 78 77 76 76 76 77 77 77 75 74 75 75 75 75 77 76 75 74 74 74 74 76 77 77 76 76 75 75 75 74 72 72 72 72 72 73 73 74
51 47 48 47 46 49 53 51 47 47 49 48 44 38 35 39 47 53 56 58 61 65 68 72 75 78 81 83 84 85 85 85 85 85 87 86 84 82 82 82 81 80 79 79 78 78 77 76 76 76 76 76 76 77 77 76 73 73 74 75 74 75 76 75 74 74 74 75 76 76 77 77 76 74 74 75 75 74 72 72 72 72 73 74 75 76
48 47 50 49 49 54 58 55 49 46 47 47 44 39 36 35 38 43 49 53 57 61 65 68 71 74 77 80 82 83 84 84 83 83 83 83 82 81 81 81 80 79 78 78 77 76 76 76 76 76 77 77 76 76 76 76 74 73 73 74 74 74 75 74 74 75 75 75 76 76 76 76 75 74 73 74 74 74 73 73 74 74 75 76 77 78
Wind_Direction
253 256 256 255 252 247 246 247 247 247 243 235 233 231 235 241 225 200 184 175 163 147 133 120 118 123 129 139 148 144 140 142 145 146 144 141 138 136 133 129 124 121 121 123 125 127 126 125 124 125 126 128 127 126 125 124 121 115 107 79 57 54 42 23 15 12 10 11 8 7 6 2 359 355 352 353 352 351 352 351 349 349 348 345 345 340
250 253 254 254 252 247 244 246 248 246 243 238 236 232 226 233 237 224 206 191 193 197 188 166 145 139 142 145 148 149 147 148 149 149 148 146 145 144 142 139 133 128 123 123 123 123 124 124 124 124 127 129 129 128 126 121 122 117 104 84 64 44 21 12 11 9 7 7 3 1 1 355 352 350 348 348 348 347 348 349 349 348 346 344 342 338
247 249 252 253 251 248 244 245 248 246 242 239 238 236 228 224 231 233 223 204 195 209 211 198 176 159 157 157 157 157 155 155 156 156 156 156 156 157 157 155 147 137 129 125 120 115 113 113 116 121 125 130 131 130 127 124 124 119 107 86 52 16 2 1 5 2 359 0 357 355 354 349 346 347 347 345 345 345 346 346 348 347 346 343 341 338
244 245 250 252 251 249 244 242 245 247 245 240 238 237 231 225 225 228 230 218 203 206 209 201 188 175 170 165 163 167 167 165 165 165 167 168 169 172 176 181 179 168 158 144 128 111 99 93 95 108 125 138 140 134 130 133 136 131 115 67 16 355 350 352 355 352 351 351 349 347 346 343 341 344 345 343 343 343 343 344 345 346 345 344 342 340
241 243 248 250 250 249 246 242 242 246 247 242 238 237 233 229 225 223 228 226 216 211 208 204 198 187 181 173 169 175 179 178 176 176 177 180 183 186 191 200 206 209 213 218 211 193 68 44 31 20 194 197 183 174 162 161 186 243 291 311 326 333 335 339 342 342 342 341 340 340 340 339 339 341 341 341 341 341 341 342 344 344 344 343 342 339
240 242 247 249 249 249 247 244 241 243 246 245 241 238 233 229 225 223 227 226 221 218 214 210 206 198 194 188 183 185 189 190 189 187 188 191 194 197 201 208 215 222 232 244 253 262 277 294 310 308 284 260 250 252 265 278 286 288 295 304 312 319 325 331 333 334 334 334 334 336 336 337 337 337 338 338 339 339 340 341 342 342 341 340 339 337
240 241 245 247 247 247 247 246 242 241 244 247 244 238 232 228 225 225 228 227 223 222 221 218 214 208 204 202 199 195 197 202 201 198 199 200 203 206 210 215 221 228 235 245 254 263 270 277 286 290 279 265 258 264 275 285 291 294 296 302 307 313 319 324 327 327 328 329 330 332 333 334 335 334 334 335 336 337 338 338 339 339 338 337 336 335
239 239 242 245 245 245 246 246 244 241 241 244 244 239 233 229 225 225 229 229 226 224 225 227 223 218 214 211 209 203 204 213 211 208 208 209 212 215 217 222 226 231 236 243 250 258 265 269 275 278 273 265 261 265 276 282 286 291 295 299 305 310 315 319 321 322 323 325 328 329 331 332 332 332 332 334 335 335 336 336 336 336 336 335 334 334
236 237 239 243 243 242 243 244 244 242 239 240 242 241 235 230 226 225 228 231 229 224 227 235 233 227 224 219 215 211 211 219 219 215 215 216 219 221 223 225 227 231 235 241 247 255 261 264 269 270 267 265 267 272 278 282 285 290 294 299 304 308 312 315 317 319 320 323 325 327 329 330 330 331 332 333 333 334 334 334 334 333 333 334 333 333
234 237 239 242 242 240 239 241 243 243 240 239 241 242 238 232 229 226 227 232 231 224 227 237 238 234 232 227 222 218 217 222 224 222 221 223 224 226 227 228 228 230 233 238 244 251 256 259 263 264 263 266 272 277 281 284 288 292 296 300 304 308 311 313 314 316 317 319 321 324 327 328 329 330 331 332 332 332 333 332 331 331 332 333 333 333
232 237 239 241 242 240 238 240 242 244 243 241 240 241 239 235 232 229 228 230 230 226 228 236 239 238 237 232 229 227 225 227 228 227 226 228 230 231 232 232 232 232 233 236 241 245 248 250 254 257 261 267 274 280 283 287 291 295 298 301 304 307 309 311 312 313 314 316 318 321 323 325 327 328 330 331 332 332 332 331 331 331 331 332 333 332
229 234 237 240 241 240 239 239 242 244 245 244 241 241 240 238 235 231 229 230 231 229 232 237 239 239 239 234 233 236 234 230 231 232 230 231 235 237 236 237 238 236 235 236 238 240 242 245 249 253 259 267 274 279 283 288 292 295 298 301 303 305 307 309 310 311 312 313 315 317 321 324 325 327 329 331 332 332 332 332 331 331 332 332 333 332
227 230 234 236 238 240 238 238 240 243 245 246 244 242 240 240 238 235 232 233 234 233 236 238 236 238 241 235 232 238 239 233 233 237 236 235 238 241 240 240 240 240 240 241 242 244 246 248 251 255 260 268 274 278 283 286 290 293 296 299 301 303 305 307 308 309 310 311 313 316 319 322 325 328 330 332 333 332 331 331 331 331 331 332 331 330
226 228 232 234 236 239 238 237 239 241 244 246 246 243 241 240 240 238 236 235 235 234 237 238 233 236 243 237 229 236 240 237 237 241 241 239 240 242 244 244 242 243 245 246 249 252 254 257 258 261 265 270 276 279 282 285 288 291 294 296 298 300 302 304 306 307 308 310 312 316 319 322 325 328 330 332 332 331 330 331 331 330 329 329 329 328
227 227 230 232 235 238 238 237 237 238 240 243 244 242 238 238 238 238 236 234 233 232 235 238 233 233 243 240 231 235 240 239 239 242 243 242 242 243 246 247 246 247 248 248 250 253 257 261 263 266 270 273 276 279 281 284 287 289 291 293 295 297 299 300 302 305 307 309 313 316 320 323 326 327 329 330 330 329 328 327 327 326 325 325 325 324
228 226 228 230 232 235 236 236 235 235 237 240 243 242 238 237 236 236 235 232 232 231 233 238 235 233 241 241 234 236 239 240 241 241 242 243 245 246 246 247 249 250 251 252 253 255 257 260 263 267 270 273 275 277 280 283 285 288 289 291 293 294 296 298 301 303 306 309 313 317 320 323 326 327 328 328 327 326 323 323 323 322 321 321 322 322
228 226 226 228 230 233 236 237 235 234 234 237 241 243 240 238 236 236 235 233 233 232 232 238 237 236 241 240 236 238 238 240 242 242 243 244 245 245 244 246 249 251 253 255 256 258 260 263 266 268 270 273 275 277 280 282 285 286 287 289 291 293 295 297 300 303 307 310 313 318 321 323 325 326 326 326 325 322 321 320 321 321 320 319 320 322
227 227 225 226 229 230 233 236 236 234 233 234 238 240 239 237 235 235 235 234 234 233 232 236 238 239 242 240 237 238 239 240 242 243 245 245 244 244 244 245 247 249 252 254 256 258 262 264 266 268 270 273 275 277 280 282 283 285 287 289 291 293 296 298 301 304 307 311 314 317 320 322 324 324 324 324 322 321 321 321 321 321 318 316 317 320
227 227 226 225 228 229 230 233 234 233 233 233 235 237 238 238 236 234 235 235 236 235 233 236 238 240 242 240 237 239 241 241 243 244 245 245 245 245 245 245 246 248 250 253 255 258 260 263 265 266 268 271 274 277 279 281 283 285 288 290 292 294 297 299 302 305 308 310 313 316 318 321 323 323 323 322 321 322 324 324 322 319 316 315 317 316
227 227 226 224 227 228 229 231 233 233 233 234 235 237 238 238 237 235 234 234 235 235 233 235 237 240 243 241 236 238 242 243 243 244 244 245 245 245 246 246 247 248 250 252 254 256 259 263 265 267 268 271 273 276 279 281 283 286 288 290 292 295 297 299 302 305 307 309 311 314 316 320 322 322 322 321 319 321 323 322 319 316 315 317 318 315
227 227 226 224 226 227 228 230 233 234 234 234 234 236 238 239 239 237 235 234 236 236 235 236 237 239 243 244 240 239 243 244 245 245 244 245 245 246 247 248 248 248 250 252 253 255 258 261 265 267 270 272 274 276 278 280 283 285 287 289 292 294 296 299 301 303 306 307 309 311 314 318 320 319 318 318 318 318 318 316 314 313 314 316 316 315
228 227 226 225 225 227 227 228 231 233 233 233 232 233 236 236 237 238 236 235 236 237 237 238 238 238 243 247 246 243 244 246 247 248 248 247 247 247 248 249 249 250 250 252 253 255 257 261 264 267 270 272 274 275 277 279 282 284 286 289 291 293 295 297 299 301 303 305 306 308 312 316 316 315 316 315 314 314 312 313 314 314 316 317 314 313
229 227 227 225 225 227 227 226 228 230 231 232 231 231 233 233 234 236 235 234 235 235 235 235 235 237 242 248 249 246 244 246 248 249 249 249 248 249 249 250 250 251 252 254 255 256 258 260 263 266 269 272 273 275 277 279 282 284 286 288 290 292 294 296 298 299 301 302 303 307 311 313 313 314 315 313 312 310 310 313 314 314 317 318 312 307
230 228 228 227 225 225 227 225 226 228 230 230 230 229 231 233 235 236 235 234 233 232 232 232 233 235 239 244 248 248 246 245 246 248 250 251 251 250 251 251 252 253 255 256 257 258 259 261 263 265 268 270 272 275 277 280 282 284 286 288 290 292 293 295 296 298 299 300 302 307 311 311 312 313 314 311 310 309 311 313 311 309 311 313 309 307
233 229 228 228 225 225 226 226 226 227 229 231 231 230 230 232 235 236 235 234 233 232 232 233 233 234 235 239 245 248 248 247 247 248 250 252 252 252 252 253 254 255 256 257 259 260 261 262 264 266 267 269 272 274 277 279 282 284 286 288 290 292 293 294 295 296 297 298 302 307 308 308 310 311 311 308 306 306 310 311 307 306 308 308 308 309
235 231 228 228 227 225 226 228 228 227 229 231 232 231 231 231 233 236 236 236 235 233 234 235 234 234 235 237 242 247 250 250 249 249 249 250 252 252 253 254 255 256 256 258 259 261 263 264 264 266 268 271 273 275 277 280 283 285 286 288 290 291 292 292 294 295 295 297 300 304 304 304 307 310 309 306 304 304 306 305 300 301 305 305 305 306
236 233 229 228 228 226 225 227 228 227 227 229 230 230 230 230 231 233 234 235 235 233 234 234 233 233 234 236 239 244 248 249 250 250 249 250 251 252 253 254 255 256 257 259 260 262 263 264 265 267 269 271 273 276 278 281 283 285 286 288 289 290 291 291 293 293 293 295 299 300 300 302 306 309 307 302 302 302 302 301 298 300 303 303 302 302
237 235 231 229 228 227 225 226 227 227 226 227 229 229 229 228 229 230 232 233 234 233 233 232 231 231 232 234 237 240 244 246 248 249 249 250 251 252 254 255 255 256 258 260 261 261 262 264 266 268 269 271 274 276 278 280 282 284 286 288 289 289 290 290 291 291 292 295 297 297 298 301 304 307 303 300 302 301 297 296 297 299 302 301 299 299
237 236 233 230 228 227 226 225 226 227 227 227 228 229 229 229 229 229 230 231 232 233 232 230 229 229 229 230 234 237 241 243 245 246 248 249 250 252 254 255 257 258 258 259 260 261 263 265 266 268 270 272 274 276 278 279 282 283 285 286 287 287 288 288 288 289 291 293 295 295 297 300 303 304 301 297 296 294 291 293 296 297 297 297 296 297
237 236 235 232 229 227 226 226 226 226 226 227 227 228 229 230 229 229 228 229 231 232 231 228 228 227 225 226 231 236 238 240 242 244 247 248 250 252 254 256 258 259 258 259 260 262 263 265 267 269 271 272 274 275 277 278 280 282 283 284 284 284 285 285 286 288 289 291 292 294 296 298 300 300 297 292 286 284 285 287 289 290 291 293 295 296
237 236 236 234 230 228 227 227 226 226 226 227 227 228 229 229 230 230 229 229 230 231 231 229 229 229 225 225 229 234 237 239 241 244 246 247 249 251 253 255 257 258 258 259 261 262 264 265 266 269 270 271 272 274 275 277 278 279 281 281 281 282 283 284 285 287 289 292 293 294 295 295 296 296 294 290 285 281 280 280 281 284 288 292 295 295
238 236 236 235 232 230 228 227 227 226 226 227 227 227 228 229 230 230 230 230 231 232 232 231 231 231 229 227 229 233 236 238 240 242 244 246 248 250 252 254 255 257 258 259 261 263 264 265 266 267 269 270 271 272 274 276 277 277 278 278 279 281 282 283 285 288 290 292 294 295 295 295 296 294 292 290 287 284 283 284 285 287 291 295 296 295
239 237 237 236 234 232 230 228 227 227 227 226 227 227 228 229 230 231 231 232 233 233 233 233 232 231 230 228 229 232 235 237 239 241 243 245 248 250 252 253 254 255 257 259 261 262 263 263 265 266 267 268 270 271 273 274 276 276 277 278 279 281 282 283 286 288 291 292 293 295 295 296 296 295 294 293 290 287 287 289 291 292 295 297 297 297
237 236 236 236 234 232 231 229 227 227 227 227 227 227 228 229 229 231 232 232 233 234 235 235 233 230 229 229 230 233 236 238 239 241 243 245 247 249 250 252 253 254 255 257 259 260 261 262 263 264 266 267 269 271 272 273 274 276 277 278 279 281 283 284 287 289 290 291 293 294 295 296 296 296 296 295 293 291 291 292 293 295 297 298 299 300
236 234 236 236 234 232 231 230 228 228 228 227 227 227 228 228 229 230 230 231 232 233 234 235 234 234 233 232 231 233 236 238 239 240 242 243 245 247 248 250 251 252 254 255 257 258 259 261 262 264 265 267 268 270 272 273 274 276 277 278 279 281 283 285 287 289 290 291 292 293 295 296 297 297 297 297 295 293 293 294 295 297 299 300 300 300
236 233 234 236 235 233 232 231 230 229 228 227 227 227 227 228 228 229 229 230 231 232 232 233 235 236 236 235 233 233 236 238 239 240 241 242 243 245 246 248 250 251 252 254 256 257 259 260 262 264 266 266 267 269 271 273 274 276 277 278 280 281 283 285 286 288 289 291 292 294 295 296 297 297 297 297 296 295 294 296 297 300 301 301 301 300
237 233 233 236 237 235 234 233 231 230 229 228 228 227 227 227 228 229 229 229 230 231 231 232 234 235 237 238 236 235 236 238 240 240 241 242 243 244 245 247 249 250 252 253 255 257 258 260 262 264 266 267 267 268 270 271 273 275 277 279 280 281 283 284 285 286 288 290 292 293 294 295 296 296 296 296 296 295 296 297 299 301 302 302 301 299
238 234 233 237 239 238 236 234 232 230 230 229 228 227 227 227 228 228 229 229 230 230 231 232 233 234 236 237 238 237 237 239 240 241 241 242 243 244 245 246 248 250 251 253 255 256 258 260 262 263 264 266 267 268 269 270 271 273 276 278 279 280 281 283 284 285 286 288 290 291 292 293 294 295 295 295 295 295 296 298 299 301 302 301 299 297
240 236 234 238 241 240 238 236 233 231 230 230 229 228 228 228 228 228 228 229 229 230 231 232 233 233 234 235 237 238 238 239 240 241 242 242 243 243 244 246 248 250 251 253 254 256 258 259 261 262 263 265 267 268 268 269 270 272 274 276 278 279 280 282 283 284 286 287 289 289 290 292 293 293 293 293 294 295 296 298 300 302 302 300 298 296
241 238 235 239 243 242 239 236 234 232 230 229 229 229 229 229 228 228 228 228 229 230 231 232 233 233 233 233 235 236 238 239 240 241 241 241 242 243 243 244 246 248 250 252 254 255 257 259 260 262 263 264 266 267 268 269 270 271 273 275 277 278 280 282 283 285 286 288 288 289 290 290 291 291 292 292 293 294 296 299 301 301 300 299 298 296
241 240 237 239 243 243 239 236 234 233 231 230 230 230 229 229 229 228 228 228 228 229 230 231 232 232 233 233 234 235 238 239 240 240 241 241 242 243 244 244 246 248 250 252 253 255 257 259 260 261 262 263 265 267 268 269 270 271 272 274 276 278 280 281 283 285 286 287 288 289 289 289 290 290 290 291 292 294 297 300 301 300 300 299 298 297
241 241 238 239 242 243 240 236 233 233 232 231 231 230 230 230 230 229 229 228 227 228 229 230 231 232 233 234 234 235 237 238 240 241 242 243 244 245 246 246 247 249 250 252 253 255 256 258 259 261 261 263 264 266 267 269 270 272 273 275 276 277 279 280 282 283 285 286 287 288 288 289 289 290 290 291 293 295 298 300 300 300 300 299 299 298
240 240 238 238 241 242 240 236 234 233 233 233 232 231 230 230 230 230 229 229 227 228 229 230 231 231 232 233 234 235 236 238 239 241 243 245 246 247 248 249 249 249 250 252 253 255 256 258 259 260 261 263 264 265 267 269 271 272 274 275 276 277 278 279 280 282 284 286 287 287 287 288 289 290 291 292 294 297 299 300 299 299 299 299 299 299
240 238 235 236 240 239 237 235 233 233 234 234 233 231 230 229 230 230 229 228 227 227 228 229 231 231 232 233 234 235 236 237 239 241 243 245 247 249 249 249 249 250 251 252 254 255 257 258 260 261 262 263 265 266 268 269 271 272 274 276 277 278 278 279 281 283 285 286 286 286 287 288 289 290 291 293 296 298 299 299 298 298 298 298 298 299
240 237 233 234 236 235 233 232 232 233 235 236 236 233 230 229 229 229 229 228 227 227 228 229 231 232 232 233 235 236 237 238 239 240 243 245 247 248 248 249 250 251 252 254 255 256 258 259 260 262 264 265 266 267 268 269 271 273 274 275 276 276 277 279 282 284 285 286 285 286 287 289 290 291 292 294 296 297 298 297 297 297 296 296 297 298
238 236 232 232 233 230 228 229 231 235 238 239 238 234 231 230 229 229 228 228 227 228 228 229 230 231 233 234 235 236 237 238 239 240 242 244 245 246 247 249 250 252 253 254 256 257 258 259 261 263 264 266 267 268 269 270 272 273 274 275 276 276 278 281 283 283 283 284 284 285 287 289 290 291 293 295 296 296 296 296 295 295 295 296 296 297
237 236 231 227 224 219 215 217 221 229 235 238 239 236 232 231 231 230 230 229 228 228 228 229 230 231 232 233 235 236 237 238 239 240 241 242 244 245 246 248 250 251 253 254 256 257 259 260 262 264 265 267 268 269 270 271 272 273 274 275 276 277 279 281 281 281 282 283 284 285 287 289 290 293 294 294 294 294 294 294 294 294 294 295 295 296
238 235 227 220 215 209 206 208 215 222 228 232 237 238 235 232 232 232 232 231 230 229 229 229 230 231 232 233 234 236 237 238 239 240 241 242 243 244 246 247 249 251 253 254 256 257 259 261 263 264 265 266 267 268 269 270 271 272 273 273 274 276 277 278 279 280 281 282 284 286 288 290 292 293 294 293 293 293 294 294 294 294 294 294 294 295
234 229 220 213 209 204 203 208 215 222 226 228 234 239 239 236 233 233 233 233 233 232 231 231 232 232 233 234 235 236 237 238 239 240 241 242 243 244 246 247 249 251 252 254 256 257 259 261 263 264 265 265 266 267 269 270 270 271 271 272 273 274 275 277 278 280 281 282 284 286 288 290 292 293 293 293 293 293 293 294 294 293 293 293 293 293
227 220 212 208 205 203 203 207 215 221 224 226 228 232 238 238 235 233 233 233 233 233 232 232 233 233 234 235 236 237 238 239 239 241 243 244 245 245 246 247 249 250 252 254 255 257 259 260 261 263 264 264 265 267 268 269 269 270 271 272 273 273 275 276 278 279 281 282 285 287 289 290 291 291 291 291 292 292 292 293 293 293 292 293 293 292
221 214 208 204 203 203 204 207 213 219 222 225 226 229 235 242 241 237 235 235 234 234 233 232 232 233 234 235 236 237 238 239 240 242 244 246 246 246 247 247 248 249 250 252 253 255 257 258 260 261 263 264 265 266 268 269 270 270 272 272 273 274 275 277 278 279 281 283 285 287 288 289 289 289 289 289 290 290 291 291 292 292 292 292 292 292